Showing default

DEORBITSAIL, 40719

Orbit data source: Space-Track

DEORBITSAIL, 40719 is a payload satellite owned by Surrey Space Ctr (UK) in SSO that was launched on Fri, 10 Jul 2015 UTC via a PSLV-XL launch vehicle from the Sirharikota (SRI). Payloads include a variety of satellites, spacecraft, and rockets equipped with specific instruments for various scientific and technological missions. These include communications satellites like Starlink; space stations such as the ISS; scientific satellites like the Hubble; Earth observation satellites from companies like Planet Labs, Umbra, and HawkEye 360; GPS; miniature CubeSats for education and research; and military/defense satellites.

Loading next visibility...
DEORBITSAIL details
Identifier
40719, 2015-032E
Orbit
SSO
Last TLE update10 hours ago
Origin
Flag of UKSurrey Space Ctr (UK)
ManufacturerSurrey Space Ctr
MissionNon-operational Amateur Technology
Bus & MotorCUBESAT 3U, Unknown motor
Mass7 kg wet, 7 kg dry
Launch date (UTC)
2015-07-10 (9 years ago)
Launch vehicle
PSLV-XL
Launch site
Sirharikota (SRI)
Object type
Payload
Rocket body
Debris
Shape & HBRBox + 1 Sail, 7.1 m
Radar Cross Section0.039 m², Small (<0.1 m²)

Expand to show TLE details & history

TLE from 10 hours ago
0 DEORBITSAIL
1 40719U 15032E   24361.13105761  .00015111  00000-0  14746-2 0  9995
2 40719  97.6604 218.7535 0010762 219.1083 140.9360 14.92470938510664
Epoch: 2024-12-26T03:08Z
Definitive object data (Epoch: 2024-12-26T03:08:43.377Z)
Latitude0.00003°
Longitude76.4579°
Altitude599.107 km
Speed7.557 km/s
True Right ascension14h 35m 00s
True Declination0° 00' 00"
Sunlit
Object was in daylight at TLE epoch
Visualization TLE readout
Latitude62.55962°
Longitude-88.20056°
Altitude602.392 km
Speed7.564 km/s
Apparent Right ascension01h 49m 40s
Apparent Declination15° 31' 51"
Sunlit
Object is in full shadow
Visualization observer readout
Local Sidereal Time12:40:54
Azimuth340.317° N
Elevation-32.287°
Doppler factor1
Orbital elements
Apogee altitude594.744 km
Perigee altitude579.751 km
Semi-major axis6,965.384 km
Eccentricity0.0010762
Inclination97.6604°
RAAN218.7535°
Arg. of periapsis219.1083°
True anomaly141.01364°
Mean anomaly140.936°
Eccentric anomaly140.97483°
Mean motion3.73358 °/min
BSTAR0.0014746
Orbital period96.42 mins
Loading maneuver chart data...
Loading historical data...
Loading historical data...
Loading historical data...
Loading historical data...
Loading historical data...
Loading historical data...
Loading historical data...

DEORBITSAIL Visibility forecast

Observer location: undefined°, undefined

Span
Click to sort rows by Start time (UTC) header in descending order
Start Az.
Max El. time (UTC)
Max El. Az.
Max El.
End time (UTC)
End Az.
7 mins2024-12-26 14:32:15.369Z152.726° SSE2024-12-26 14:35:15.369Z95.171° ESE41.014°2024-12-26 14:39:15.369Z355.758° N
6 mins2024-12-27 03:51:15.369Z1.743° NNE2024-12-27 03:54:15.369Z278.076° WNW41.445°2024-12-27 03:57:15.369Z207.559° SW
|